TimeCDT,TemperatureF,Dew PointF,Humidity,Sea Level PressureIn,VisibilityMPH,Wind Direction,Wind SpeedMPH,Gust SpeedMPH,PrecipitationIn,Events,Conditions,WindDirDegrees,DateUTC
12:15 AM,57.2,57.2,100,30.20,10.0,Calm,Calm,-,0.00,,Scattered Clouds,0,2012-10-12 05:15:00
12:35 AM,57.2,57.2,100,30.19,7.0,Calm,Calm,-,0.00,,Clear,0,2012-10-12 05:35:00
12:55 AM,57.2,57.2,100,30.19,9.0,Calm,Calm,-,0.00,,Clear,0,2012-10-12 05:55:00
1:15 AM,59.0,59.0,100,30.19,10.0,South,4.6,-,0.00,,Clear,170,2012-10-12 06:15:00
1:35 AM,59.0,59.0,100,30.19,10.0,Calm,Calm,-,0.00,,Clear,0,2012-10-12 06:35:00
1:55 AM,57.2,57.2,100,30.19,10.0,Calm,Calm,-,0.00,,Clear,0,2012-10-12 06:55:00
2:15 AM,57.2,57.2,100,30.19,7.0,Calm,Calm,-,0.00,,Clear,0,2012-10-12 07:15:00
2:35 AM,57.2,57.2,100,30.19,7.0,Calm,Calm,-,0.00,,Clear,0,2012-10-12 07:35:00
2:55 AM,57.2,57.2,100,30.18,7.0,South,5.8,-,0.00,,Clear,180,2012-10-12 07:55:00
3:15 AM,57.2,57.2,100,30.18,5.0,South,5.8,-,N/A,,Clear,180,2012-10-12 08:15:00
3:35 AM,57.2,57.2,100,30.18,5.0,South,4.6,-,0.00,,Clear,180,2012-10-12 08:35:00
3:55 AM,57.2,57.2,100,30.18,3.0,South,3.5,-,0.00,,Clear,180,2012-10-12 08:55:00
4:15 AM,57.2,57.2,100,30.18,3.0,South,5.8,-,0.00,,Clear,190,2012-10-12 09:15:00
4:35 AM,57.2,57.2,100,30.18,5.0,SSW,5.8,-,0.00,,Clear,200,2012-10-12 09:35:00
4:55 AM,59.0,59.0,100,30.19,3.0,South,6.9,-,0.00,,Scattered Clouds,190,2012-10-12 09:55:00
5:15 AM,60.8,60.8,100,30.19,5.0,South,6.9,-,0.00,,Overcast,190,2012-10-12 10:15:00
5:35 AM,60.8,60.8,100,30.19,5.0,South,8.1,-,0.00,,Overcast,190,2012-10-12 10:35:00
5:55 AM,60.8,60.8,100,30.20,5.0,South,10.4,-,0.00,,Overcast,190,2012-10-12 10:55:00
6:15 AM,60.8,60.8,100,30.19,5.0,South,10.4,-,0.00,,Scattered Clouds,190,2012-10-12 11:15:00
6:35 AM,60.8,60.8,100,30.19,5.0,South,9.2,-,0.00,,Clear,190,2012-10-12 11:35:00
6:50 AM,60.8,60.8,100,30.20,5.0,South,5.8,-,N/A,,Scattered Clouds,180,2012-10-12 11:50:00
8:50 AM,64.4,64.4,100,30.26,5.0,NNE,5.8,-,N/A,,Overcast,30,2012-10-12 13:50:00
9:45 AM,64.4,64.4,100,30.29,5.0,North,8.1,-,N/A,,Overcast,10,2012-10-12 14:45:00
10:50 AM,66.2,66.2,100,30.29,6.0,ENE,5.8,-,N/A,,Overcast,60,2012-10-12 15:50:00
11:45 AM,68.0,66.2,94,30.29,6.0,ENE,5.8,-,N/A,,Overcast,60,2012-10-12 16:45:00
1:50 PM,71.6,66.2,83,30.24,9.0,Calm,Calm,-,N/A,,Mostly Cloudy,0,2012-10-12 18:50:00
3:50 PM,73.4,68.0,83,30.22,9.0,South,3.5,-,N/A,,Overcast,180,2012-10-12 20:50:00
4:50 PM,73.4,68.0,83,30.21,8.0,Calm,Calm,-,N/A,,Overcast,0,2012-10-12 21:50:00
5:50 PM,71.6,69.8,94,30.21,8.0,North,4.6,-,N/A,,Overcast,10,2012-10-12 22:50:00
6:50 PM,69.8,69.8,100,30.21,10.0,NNE,3.5,-,N/A,,Overcast,30,2012-10-12 23:50:00
8:55 PM,62.6,62.6,100,30.22,7.0,ENE,5.8,-,0.00,,Clear,60,2012-10-13 01:55:00
9:15 PM,62.6,62.6,100,30.22,5.0,NE,6.9,-,0.00,,Mostly Cloudy,40,2012-10-13 02:15:00
9:35 PM,62.6,62.6,100,30.23,3.0,NE,6.9,-,0.00,,Overcast,50,2012-10-13 02:35:00
9:55 PM,62.6,62.6,100,30.22,2.0,ENE,3.5,-,0.00,,Overcast,60,2012-10-13 02:55:00
10:15 PM,62.6,62.6,100,30.23,1.0,NE,4.6,-,0.00,,Overcast,50,2012-10-13 03:15:00
10:35 PM,62.6,62.6,100,30.22,0.5,NE,5.8,-,0.00,,Overcast,40,2012-10-13 03:35:00
10:55 PM,62.6,62.6,100,30.22,0.2,NE,5.8,-,0.00,,Overcast,50,2012-10-13 03:55:00
11:15 PM,62.6,-9999,N/A,30.22,0.5,East,3.5,-,0.00,,Overcast,80,2012-10-13 04:15:00
11:35 PM,64.4,-9999,N/A,30.22,0.5,East,4.6,-,0.00,,Overcast,80,2012-10-13 04:35:00
11:55 PM,64.4,-9999,N/A,30.22,0.5,East,5.8,-,N/A,,Overcast,80,2012-10-13 04:55:00